Location: Acton
(51.4942°N, 0.2232°W)
Time: 01:54:04
(UTC+00:00)

Cosmos 1125 Rocket - Pass Details

Date: 18 September 2020
Orbit: 758 x 779 km, 74.0° (Epoch: 30 October)

Event Time Altitude Azimuth Distance (km) Brightness Sun altitude
Rises 20:38:48 0° 203° (SSW) 3,247 6.6 -22.9°
Reaches altitude 10° 20:41:10 10° 204° (SSW) 2,326 5.9 -23.2°
Maximum altitude 20:46:29 89° 294° (WNW) 788 3.4 -23.9°
Drops below altitude 10° 20:51:50 10° 25° (NNE) 2,345 6.1 -24.5°
Sets 20:54:14 0° 25° (NNE) 3,276 6.9 -24.8°
